Flag for Norway Weather past 2 weeks in Spydeberg, Norway

Now
45 °F

Low clouds.


Feels Like: 40 °F
Forecast: 39 / 51 °F
Wind: 9 mph from South

Location: Rygge

Current Time: Apr 25, 2015 at 6:45:50 AM

Latest Report: Apr 25, 2015 at 5:50 AM


Visibility: N/A

Pressure: 29.56 "Hg

Humidity: 93%

Dew point: 43 °F

Location of SpydebergLocation

Historic Weather in Spydeberg — Graph

°F

Spydeberg temperature yesterday

Maximum temperature yesterday: 50 °F (at 1:50 PM)
Minimum temperature yesterday: 43 °F (at 2:20 AM)
Average temperature yesterday: 46 °F

Past Weeks' High & Low Weather Summary

 TemperatureHumidityPressure
High68 °F (Apr 20, 12:50 PM)100% (Apr 10, 7:20 PM)30.36 "Hg (Apr 10, 7:20 PM)
Low30 °F (Apr 18, 4:20 AM)20% (Apr 23, 2:20 PM)29.45 "Hg (Apr 15, 5:50 PM)
Average47 °F60%29.95 "Hg
* Reported Apr 10 5:20 AM — Apr 25 5:20 AM, Spydeberg, Weather by CustomWeather, © 2015

Note: Actual official high and low records may vary slightly from our data, if they occured in-between our weather recording intervals... More about our weather records

Advertising

Spydeberg weather history for previous 24 hours

 ConditionsComfort  
Time TempWeatherWind HumidityBarometerVisibility
5:20 AM
Sat, Apr 25
45 °FLow clouds.12 mph87%29.56 "HgN/A
4:50 AM45 °FLow clouds.12 mph87%29.56 "HgN/A
4:20 AM45 °FLow clouds.12 mph93%29.56 "HgN/A
3:50 AM43 °FDrizzle. Low clouds.10 mph100%29.56 "Hg2 mi
3:20 AM45 °FMostly cloudy.13 mph87%29.59 "Hg3 mi
2:50 AM45 °FMostly cloudy.9 mph87%29.59 "HgN/A
2:20 AM45 °FOvercast.13 mph87%29.59 "HgN/A
1:20 AM45 °FMostly cloudy.14 mph87%29.59 "HgN/A
12:50 AM45 °FLow clouds.10 mph87%29.59 "HgN/A
12:20 AM45 °FMostly cloudy.10 mph93%29.59 "HgN/A
11:50 PM
Fri, Apr 24
46 °FPassing clouds.12 mph87%29.59 "HgN/A
11:20 PM45 °FPassing clouds.9 mph87%29.62 "HgN/A
10:50 PM45 °FClear.7 mph87%29.62 "Hg10 mi
10:16 PM45 °FClear.8 mph87%29.62 "Hg10 mi
9:50 PM45 °FSunny.8 mph87%29.62 "Hg10 mi
9:20 PM45 °FSunny.7 mph81%29.62 "Hg10 mi
8:50 PM46 °FSunny.9 mph76%29.62 "Hg10 mi
8:20 PM46 °FSunny.12 mph76%29.62 "Hg10 mi
7:50 PM46 °FSunny.9 mph76%29.62 "Hg10 mi
7:20 PM48 °FSunny.12 mph71%29.65 "Hg10 mi
6:50 PM48 °FSunny.10 mph71%29.65 "Hg10 mi
6:20 PM48 °FSunny.14 mph71%29.65 "Hg10 mi
5:50 PM48 °FSunny.13 mph71%29.65 "Hg10 mi
5:20 PM48 °FScattered clouds.14 mph66%29.65 "HgN/A
4:50 PM50 °FScattered clouds.13 mph58%29.65 "HgN/A
4:20 PM50 °FScattered clouds.14 mph62%29.65 "HgN/A
3:50 PM48 °FScattered showers. Scattered clouds.13 mph66%29.65 "HgN/A
3:20 PM50 °FScattered clouds.12 mph58%29.68 "HgN/A
2:50 PM50 °FSunny.13 mph54%29.68 "Hg10 mi
2:20 PM50 °FSunny.10 mph50%29.68 "Hg10 mi
1:50 PM50 °FSunny.9 mph47%29.68 "Hg10 mi
1:20 PM48 °FPassing clouds.7 mph46%29.68 "HgN/A
12:50 PM48 °FPassing clouds.7 mph50%29.68 "HgN/A
12:20 PM48 °FPassing clouds.7 mph46%29.68 "HgN/A
11:50 AM48 °FPassing clouds.8 mph50%29.68 "HgN/A
11:20 AM46 °FSunny.9 mph53%29.68 "Hg10 mi
10:50 AM46 °FSunny.7 mph53%29.68 "Hg10 mi
10:20 AM46 °FSunny.10 mph53%29.68 "Hg10 mi
9:50 AM46 °FSunny.10 mph53%29.68 "Hg10 mi
9:20 AM46 °FPassing clouds.8 mph53%29.68 "HgN/A
8:50 AM45 °FSunny.9 mph57%29.68 "Hg10 mi
8:20 AM45 °FSunny.7 mph57%29.68 "Hg10 mi
7:50 AM43 °FSunny.6 mph61%29.68 "Hg10 mi
7:20 AM43 °FSunny.7 mph57%29.68 "Hg10 mi
6:50 AM43 °FPassing clouds.3 mph57%29.65 "HgN/A
6:20 AM43 °FClear.7 mph57%29.65 "Hg10 mi
Weather by CustomWeather, © 2015

See weather overviewHow to use our weather pages